Location: ??
(35.5362°N, 139.7461°E)
Time: 14:44:09
(UTC+00:00)

Daily predictions for brighter satellites

Satellite Brightness Start Highest point End
(mag) Time Altitude Azimuth Time Altitude Azimuth Time Altitude Azimuth
Cosmos 494 Rocket 4.2 12:03:34 10° NNW 12:08:46 65° WSW 12:10:36 39° S
Cosmos 1125 Rocket 3.7 12:06:24 16° SSW 12:10:34 71° WNW 12:15:53 10° NNE
Cosmos 2150 Rocket 4.0 12:12:11 52° SSE 12:13:13 62° ESE 12:18:35 10° NNE
Nadezhda 3 Rocket 4.1 12:07:39 10° N 12:13:46 73° W 12:16:40 33° S
Geosat 4.1 12:08:47 10° NNE 12:13:47 74° WNW 12:17:32 18° SW
SL-8 Rocket 4.1 12:12:37 44° SE 12:14:16 58° E 12:20:26 10° NNE
Cosmos 1606 3.2 12:11:51 10° N 12:14:32 45° NNE 12:14:32 45° NNE
SPOT 3 Rocket 3.4 12:15:28 54° SSE 12:16:41 84° ENE 12:21:54 10° NNW
OAO 2 Rocket 3.9 12:12:25 10° W 12:17:20 42° SSW 12:17:23 42° SSW
Milstar 3 4.4 12:10:37 10° SSW 12:23:53 20° ESE 12:28:39 10° E
Cosmos 921 Rocket 3.2 12:13:43 10° NNW 12:17:49 59° WSW 12:18:17 55° SW
Cosmos 1869 3.6 12:17:40 10° N 12:20:52 56° NNE 12:20:52 56° NNE
Cosmos 2228 3.8 12:25:36 10° N 12:28:46 39° NE 12:28:46 39° NE
Terra 2.9 12:39:08 31° SW 12:40:10 35° W 12:44:29 10° NNW
Cosmos 2218 Rocket 3.8 12:39:58 61° SSE 12:41:04 80° E 12:47:14 10° N
Cosmos 864 Rocket 4.4 12:41:31 59° S 12:42:51 85° E 12:49:06 10° N
Cosmos 1833 Rocket 2.8 12:44:13 10° NNW 12:49:49 61° ENE 12:50:00 60° ENE
Cosmos 2341 Rocket 4.2 12:49:23 42° SW 12:51:29 65° W 12:57:46 10° N
Cosmos 1544 Rocket 4.1 12:49:09 10° NNW 12:52:47 55° NW 12:52:47 55° NW
BREEZE-M DEB (TANK) 3.4 12:49:22 10° NW 12:57:15 48° NNE 12:57:21 48° NNE
Cosmos 2082 Rocket 3.9 12:57:54 10° N 13:02:04 21° ENE 13:02:35 20° ENE
Cosmos 2278 Rocket 2.1 13:02:21 86° NE 13:02:21 86° NE 13:07:55 10° NNE
ATLAS 3B R/B 3.0 13:05:34 51° E 13:05:34 51° E 13:12:08 10° NE
USA 215 4.3 13:06:29 30° SW 13:07:06 30° SW 13:12:43 10° WNW
ATLAS CENTAUR R/B 3.4 13:14:25 10° NW 13:16:22 22° WNW 13:16:22 22° WNW
Cosmos 1727 Rocket 3.9 13:19:00 10° N 13:25:10 75° ENE 13:25:10 75° ENE
Cosmos 614 Rocket 4.4 13:21:40 10° NNW 13:25:40 56° NNW 13:25:40 56° NNW
Cosmos 1821 Rocket 4.0 13:26:44 74° WSW 13:27:00 75° W 13:33:21 10° N
NOSS 3-1 (C) 4.3 13:28:10 28° W 13:29:43 35° NW 13:34:44 10° NNE
Cosmos 1943 Rocket 2.5 13:41:02 64° NNW 13:41:02 64° NNW 13:46:00 10° NNE
ARIANE 5 R/B 4.2 13:51:36 32° NW 13:51:36 32° NW 13:54:08 10° NNW
NOSS 3-1 (A) 4.1 14:07:11 40° NW 14:07:11 40° NW 14:12:00 10° NNE
SeaSat 1 3.5 14:08:28 42° N 14:08:28 42° N 14:11:51 10° NNW
ALOS 2 4.4 14:12:20 29° N 14:12:20 29° N 14:14:33 10° N
Cosmos 2123 Rocket 4.2 14:19:05 10° N 14:24:30 66° NNW 14:24:30 66° NNW
USA 229 DEB 3.8 14:35:20 59° NE 14:35:20 59° NE 14:40:32 10° NNE
USA 229 3.8 14:35:29 58° NE 14:35:29 58° NE 14:40:40 10° NNE
Cosmos 1656 Rocket 4.5 14:47:01 46° N 14:47:01 46° N 14:50:52 10° NNE
Cosmos 2082 Rocket 3.4 14:40:59 10° NNW 14:44:24 34° NW 14:44:24 34° NW
Cosmos 2369 Rocket 3.1 14:50:50 45° NNE 14:50:50 45° NNE 14:54:39 10° NNE
ATLAS 3B R/B 4.2 14:52:45 23° W 14:55:59 32° NW 15:02:39 10° NNE
CZ-4C R/B 3.4 14:50:48 10° NNW 14:58:18 59° NE 15:00:33 47° ESE
USA 281 3.3 15:02:19 72° NW 15:02:19 72° NW 15:08:11 10° NNW
Milstar 3 4.4 14:57:26 46° SW 15:01:45 64° S 15:23:32 10° E
Cosmos 2285 Rocket 4.3 15:05:35 10° NNW 15:11:31 64° NE 15:11:31 64° NE
Iridium 4 Rocket 4.3 15:09:07 10° N 15:13:44 58° NNE 15:13:44 58° NNE
Lacrosse 4 Rocket 3.8 15:21:16 20° NNE 15:21:16 20° NNE 15:22:36 10° NNE
Resurs 1-4 Rocket 4.4 15:20:31 10° ENE 15:22:52 14° E 15:22:52 14° E
USA 234 3.2 15:18:47 10° NE 15:24:51 77° ENE 15:24:51 77° ENE
Cosmos 1725 Rocket 4.4 15:32:59 53° E 15:32:59 53° E 15:38:48 10° NNE
Cosmos 1459 Rocket 4.1 15:33:48 75° NNE 15:33:48 75° NNE 15:39:35 10° N
Cosmos 2100 Rocket 4.1 15:41:48 65° NW 15:41:48 65° NW 15:47:15 10° N
IDEFIX/ARIANE 42P 4.0 15:36:55 10° NE 15:40:34 28° ENE 15:40:34 28° ENE
Cosmos 1802 Rocket 4.0 15:43:58 76° NE 15:43:58 76° NE 15:49:50 10° N
Cosmos 44 Rocket 4.3 15:53:19 45° NE 15:53:19 45° NE 15:56:53 10° NNE
CZ-2C R/B 4.3 15:54:40 25° E 15:56:21 30° ENE 16:01:07 10° N
Cosmos 1833 4.4 15:52:39 10° NNW 15:58:01 66° NE 15:58:01 66° NE
Cosmos 2061 Rocket 4.1 15:58:27 63° E 15:58:28 63° E 16:04:35 10° NNE
CZ-2C R/B 4.5 15:56:58 10° NE 16:00:21 26° E 16:00:21 26° E
Cosmos 2344 3.7 16:03:40 54° SE 16:04:31 57° ESE 16:11:34 10° NE
CENTAUR R/B 4.0 15:57:25 10° NNW 16:05:41 50° NE 16:14:40 10° SE
Tsikada Rocket 4.2 16:08:08 10° N 16:14:19 62° E 16:15:08 56° ESE
Cosmos 1110 Rocket 4.3 16:17:01 61° NNW 16:17:01 61° NNW 16:21:33 10° NNE
ASTEX 1 4.1 16:18:56 46° NNW 16:18:56 46° NNW 16:22:31 10° NNW
CZ-2D R/B 2.6 16:17:03 10° NNE 16:22:00 50° E 16:22:00 50° E
Lacrosse 5 rocket 3.8 16:25:21 14° NNW 16:25:21 14° NNW 16:27:27 10° N
FENGYUN 3A 4.5 16:23:59 10° NNE 16:29:04 40° E 16:29:42 39° ESE
Cosmos 1452 Rocket 4.0 16:30:02 50° NW 16:30:02 50° NW 16:34:37 10° N
NPP 3.6 16:24:47 10° NNE 16:30:03 85° NNE 16:30:03 85° NNE
Cosmos 1850 Rocket 4.0 16:27:24 10° NNW 16:32:39 73° ENE 16:32:42 73° ENE
DELTA 2 R/B (1) 3.5 16:32:57 81° ENE 16:32:57 81° ENE 16:38:15 10° ENE
Cosmos 1461 4.4 16:29:07 10° NNW 16:31:18 30° N 16:31:18 30° N
Cosmos 2369 Rocket 4.3 16:32:35 13° WNW 16:33:40 14° NW 16:36:29 10° NNW
MSX 3.7 16:28:48 10° NNE 16:34:35 87° ESE 16:34:55 80° S
SJ 16-02 2.7 16:35:58 10° N 16:40:00 35° ENE 16:40:54 32° E
Cosmos 1697 Rocket 4.4 16:43:11 18° SE 16:45:04 22° E 16:49:16 10° NE
ATLAS CENTAUR R/B 2.8 16:45:50 63° SSE 16:46:22 66° ESE 16:54:33 10° NE
CZ-4C R/B 4.0 16:39:47 10° NW 16:45:33 32° W 16:45:33 32° W
COSMOS 2455 2.9 16:49:03 10° NW 16:54:42 57° W 16:54:42 57° W
AQUA 4.3 16:50:24 10° NNE 16:55:00 50° E 16:55:33 48° SE
NOSS 3-4 (A) 4.5 16:54:37 25° SE 16:55:51 27° ESE 17:00:30 10° NE
Cosmos 1626 3.8 16:55:14 10° NNE 16:57:20 27° NE 16:57:20 27° NE
Cosmos 2297 Rocket 4.2 16:54:02 10° N 16:58:43 26° ENE 17:03:22 10° ESE
USA 59 Rocket 2.0 16:59:54 14° NNW 16:59:54 14° NNW 17:00:47 10° NNW
Cosmos 1151 Rocket 3.3 16:56:42 10° N 17:01:00 62° E 17:01:20 60° ESE
SL-24 R/B 4.0 16:57:12 10° NNE 17:01:22 77° E 17:01:22 77° E
Resurs 1-4 Rocket 2.2 16:58:11 10° N 17:03:25 60° WNW 17:03:55 57° W
ADEOS II 2.0 17:04:58 10° NNE 17:10:14 84° WNW 17:11:11 61° SSW
SL-16 R/B 3.1 17:04:41 11° SE 17:10:24 55° ENE 17:16:24 10° N
ALOS 2.6 17:07:03 10° NNE 17:11:36 58° E 17:12:34 47° SSE
Meteor 1-28 Rocket 4.0 17:12:10 42° E 17:12:38 45° ENE 17:16:05 10° N
Cosmos 1741 Rocket 4.3 17:07:43 10° NNW 17:12:23 47° W 17:12:23 47° W
Cosmos 1980 Rocket 4.4 17:13:29 10° SE 17:17:17 19° E 17:21:06 10° ENE
IDEFIX/ARIANE 42P 3.7 17:16:29 10° NNW 17:20:49 28° WNW 17:21:18 27° WNW
Meteor 1-27 Rocket 4.3 17:20:30 10° NNW 17:25:48 38° W 17:26:15 37° WSW
Gbstr 26 Del rocket 4.1 17:19:38 10° NW 17:25:49 58° SW 17:33:07 10° SSE
Cosmos 1726 2.4 17:28:12 47° ENE 17:28:12 47° ENE 17:30:49 10° NNE
OAO 3 Rocket 3.0 17:30:25 52° WSW 17:31:26 69° SSW 17:36:15 10° ESE
Cosmos 1656 4.0 17:31:18 39° WSW 17:32:41 48° WNW 17:37:59 10° N
CZ-2C R/B 3.4 17:36:10 32° WSW 17:36:26 33° W 17:41:25 10° NNW
Nadezhda 4 Rocket 4.2 17:30:21 10° N 17:36:29 67° E 17:42:32 10° SSE
Cosmos 2360 4.1 17:35:06 40° SSW 17:37:16 81° WNW 17:43:01 10° NNE
CZ-2C R/B 4.1 17:36:52 10° NNW 17:40:43 25° WNW 17:41:21 24° W
Cosmos 1072 Rocket 4.5 17:38:40 35° SSW 17:41:11 62° W 17:47:17 10° N
Tiangong -0.9 17:43:01 31° NW 17:43:36 35° NNW 17:46:30 10° NE
Cosmos 1464 Rocket 4.0 17:42:30 33° SSW 17:45:18 63° W 17:51:23 10° N
UNK 3.9 17:44:44 12° SSE 17:48:50 71° ENE 17:53:21 10° N
Cosmos 1766 Rocket 3.7 17:49:56 40° SW 17:51:11 56° W 17:55:31 10° N
Cosmos 1674 3.0 17:51:07 10° N 17:54:26 55° E 17:56:46 18° SSE
SAR-Lupe-4 3.4 17:52:46 10° N 17:56:19 73° WNW 17:57:18 44° SSW
CENTAUR R/B 3.7 17:48:19 10° NW 17:56:30 43° WSW 18:05:04 10° S
Delta 7925 Rocket 4.4 17:56:27 29° SSW 17:57:42 32° S 18:02:10 10° ESE
Cosmos 1743 3.7 17:59:05 26° W 17:59:08 26° WNW 18:02:16 10° NNW
CZ-2D R/B 3.8 17:58:17 10° NNW 18:01:40 18° WNW 18:03:17 16° W
Cosmos 1400 Rocket 4.5 17:59:31 10° NNE 18:03:04 33° ENE 18:06:38 10° SE
GEOS 3 Rocket 3.7 17:59:36 10° NE 18:04:43 68° ESE 18:08:04 21° SSW
Cosmos 1634 Rocket 4.4 17:59:15 10° S 18:05:19 61° E 18:11:23 10° NNE
Cosmos 1536 2.7 18:07:19 21° S 18:09:52 86° E 18:13:51 10° N
Atlas Centaur 2 4.1 18:06:50 16° SSW 18:11:13 26° SSE 18:17:03 10° ESE
YAOGAN 6 2.8 18:10:46 10° NNE 18:13:54 56° E 18:16:12 17° S
Cosmos 1842 3.0 18:12:50 10° N 18:16:33 87° E 18:20:14 10° S
SJ 16-02 3.0 18:15:18 10° WNW 18:17:34 16° W 18:17:34 16° W
DELTA 2 R/B (1) 4.1 18:13:53 10° W 18:19:22 56° N 18:24:50 10° ENE
Cosmos 1328 Rocket 4.1 18:16:06 10° NNW 18:20:13 39° W 18:22:54 19° SSW
Meteor 1-11 Rocket 4.0 18:14:25 10° S 18:20:15 78° E 18:26:12 10° NNE
Cosmos 1092 Rocket 4.1 18:14:06 10° N 18:20:15 77° E 18:26:22 10° S
Lacrosse 5 2.0 18:16:17 10° NW 18:21:22 77° NE 18:26:26 10° SE
Envisat 3.2 18:16:53 10° N 18:21:49 54° WNW 18:25:30 18° SW
Cosmos 1500 Rocket 3.8 18:19:17 10° S 18:23:33 67° E 18:27:53 10° NNE
IRS-1D 3.7 18:19:06 10° NNE 18:24:00 67° ESE 18:28:55 10° S
ATLAS 5 CENTAUR R/B 4.5 18:20:17 10° N 18:24:44 28° NE 18:29:57 10° ESE
Cosmos 2227 Rocket 2.5 18:21:24 10° NNW 18:27:02 72° ENE 18:32:39 10° SSE
Cosmos 1697 Rocket 3.2 18:24:55 19° SW 18:28:39 43° WNW 18:33:59 10° N
PAYLOAD A 4.1 18:25:59 10° NNE 18:31:24 87° WNW 18:36:36 10° SSW
Thor Agena Rocket 3.8 18:29:15 10° NNE 18:34:23 71° ESE 18:39:25 10° S
Cosmos 1340 3.4 18:33:04 20° WSW 18:34:32 27° WNW 18:37:27 10° NNW
Cosmos 1707 2.5 18:32:54 10° NNW 18:36:30 64° W 18:40:05 10° S
CZ-4 R/B 4.2 18:32:02 10° N 18:36:50 51° WNW 18:41:08 12° SW
Cosmos 1900 4.5 18:36:11 10° NW 18:40:54 49° WSW 18:45:33 10° S
Meteor 2-10 3.9 18:36:24 10° SSW 18:41:34 75° W 18:46:38 10° N
Cosmos 2297 Rocket 2.7 18:37:35 10° NW 18:42:48 39° WSW 18:48:00 10° S
Cosmos 371 Rocket 3.3 18:40:15 10° NNW 18:45:01 59° WSW 18:49:45 10° S
NOSS 3-4 (C) 4.1 18:41:37 13° WSW 18:46:03 37° NW 18:51:25 10° NNE
NOSS 3-4 (A) 4.1 18:42:03 13° WSW 18:46:25 36° NW 18:51:42 10° NNE
Cosmos 1805 Rocket 3.5 18:43:46 10° SSW 18:48:11 75° W 18:52:38 10° N
ALOS 4.3 18:46:20 10° NW 18:48:14 12° WNW 18:50:09 10° W
DMSP B5D2-2 4.1 18:43:04 10° S 18:48:17 69° WSW 18:53:31 10° NNW
ASTRO E2 4.3 18:49:16 10° SSW 18:51:34 17° SSE 18:53:52 10° ESE
CZ-2C R/B 3.0 18:49:32 10° N 18:54:10 42° WNW 18:58:53 10° SW
SL-16 R/B 3.8 18:49:50 10° SW 18:54:14 20° W 18:58:39 10° NW
BREEZE-M DEB (TANK) 2.5 18:53:54 11° SW 18:56:49 65° SE 19:00:05 10° ENE
NOSS 3-2 (C) 4.4 18:50:01 10° NW 18:57:43 50° WSW 19:06:21 10° S
Cosmos 1867 3.6 18:52:43 10° NW 18:58:05 58° WSW 19:03:23 10° SSE
OAO 1 Rocket 4.5 18:54:58 10° W 19:00:19 85° S 19:05:38 10° E
Cosmos 1980 Rocket 2.5 18:55:15 10° SW 19:00:46 51° WNW 19:06:20 10° N
SL-16 R/B 3.9 18:57:23 10° SSE 19:02:22 33° ESE 19:07:22 10° NE
SL-14 R/B 4.0 19:04:07 10° N 19:08:02 57° E 19:11:54 10° SSE
